TimeEDT,TemperatureF,Dew PointF,Humidity,Sea Level PressureIn,VisibilityMPH,Wind Direction,Wind SpeedMPH,Gust SpeedMPH,PrecipitationIn,Events,Conditions,WindDirDegrees,DateUTC
1:53 AM,80.1,77.0,90,30.04,10.0,Calm,Calm,-,N/A,,Clear,0,2013-08-16 05:53:00
2:53 AM,80.1,77.0,90,30.01,10.0,Calm,Calm,-,N/A,,Clear,0,2013-08-16 06:53:00
3:53 AM,81.0,77.0,88,30.01,10.0,Calm,Calm,-,N/A,,Mostly Cloudy,0,2013-08-16 07:53:00
4:53 AM,81.0,77.0,88,30.01,10.0,NE,3.5,-,N/A,,Mostly Cloudy,50,2013-08-16 08:53:00
5:53 AM,80.1,77.0,90,30.03,10.0,Calm,Calm,-,N/A,,Mostly Cloudy,0,2013-08-16 09:53:00
6:53 AM,81.0,77.0,88,30.04,10.0,Calm,Calm,-,N/A,,Overcast,0,2013-08-16 10:53:00
7:53 AM,82.9,77.0,82,30.05,10.0,East,3.5,-,N/A,,Overcast,80,2013-08-16 11:53:00
8:53 AM,84.0,77.0,79,30.05,10.0,ESE,8.1,-,N/A,,Overcast,110,2013-08-16 12:53:00
9:26 AM,84.2,77.0,79,30.05,10.0,ESE,6.9,-,N/A,,Overcast,110,2013-08-16 13:26:00
9:51 AM,86.0,75.2,70,30.05,10.0,ESE,6.9,-,N/A,,Overcast,110,2013-08-16 13:51:00
9:53 AM,87.1,75.0,67,30.05,10.0,ESE,6.9,-,N/A,,Overcast,110,2013-08-16 13:53:00
10:15 AM,87.8,75.2,66,30.05,10.0,ESE,10.4,-,N/A,,Overcast,110,2013-08-16 14:15:00
10:53 AM,88.0,75.0,65,30.06,10.0,East,12.7,-,N/A,,Overcast,90,2013-08-16 14:53:00
11:53 AM,89.1,73.0,59,30.06,10.0,East,11.5,-,N/A,,Overcast,100,2013-08-16 15:53:00
12:53 PM,89.1,75.9,65,30.05,10.0,ESE,11.5,-,N/A,,Overcast,120,2013-08-16 16:53:00
1:53 PM,89.1,75.0,63,30.04,10.0,ESE,11.5,18.4,N/A,,Mostly Cloudy,110,2013-08-16 17:53:00
2:53 PM,90.0,75.9,63,30.01,10.0,SE,11.5,-,N/A,,Mostly Cloudy,130,2013-08-16 18:53:00
3:53 PM,90.0,75.0,61,30.00,10.0,SE,10.4,-,N/A,,Mostly Cloudy,130,2013-08-16 19:53:00
4:53 PM,87.1,73.9,65,30.01,10.0,ESE,12.7,-,N/A,,Mostly Cloudy,120,2013-08-16 20:53:00
5:53 PM,89.1,75.9,65,30.00,10.0,ESE,9.2,-,N/A,,Scattered Clouds,120,2013-08-16 21:53:00
6:53 PM,87.1,73.9,65,30.01,10.0,SE,8.1,-,N/A,,Scattered Clouds,130,2013-08-16 22:53:00
7:53 PM,84.9,75.9,74,30.02,10.0,ESE,10.4,-,N/A,,Scattered Clouds,120,2013-08-16 23:53:00
8:53 PM,84.9,77.0,77,30.05,10.0,ESE,10.4,-,N/A,,Scattered Clouds,110,2013-08-17 00:53:00
9:53 PM,84.0,75.9,76,30.06,10.0,ESE,9.2,-,N/A,,Scattered Clouds,120,2013-08-17 01:53:00
10:53 PM,84.0,75.0,74,30.06,10.0,ESE,6.9,-,N/A,,Scattered Clouds,110,2013-08-17 02:53:00
11:53 PM,84.0,77.0,79,30.06,10.0,ESE,6.9,-,N/A,,Scattered Clouds,110,2013-08-17 03:53:00